Regional Weather Roundup
Issued by NWS Little Rock, AR

Home | Current Version | Previous Version | Graphics & Text | Print | Product List | Glossary On
Versions: 1 2 3 4 5 6 7 8 9 10 11 12 13 14 15 16 17 18 19 20 21 22 23 24 25 26 27
000
ASUS44 KLZK 150805
RWRLZK

WEATHER ROUNDUP FOR ARKANSAS
NATIONAL WEATHER SERVICE LITTLE ROCK AR
300 AM CDT TUE APR 15 2014

NOTE: "FAIR" INDICATES FEW OR NO CLOUDS BELOW 12,000 FEET WITH NO
SIGNIFICANT WEATHER AND/OR OBSTRUCTIONS TO VISIBILITY.

ARZ001-003-010-029-150900-
NORTHWEST ARKANSAS

CITY           SKY/WX    TMP DP  RH WIND       PRES   REMARKS
FAYETTEVILLE   CLEAR     27  25  92 CALM      30.19S
FORT SMITH     CLEAR     34  27  75 W7        30.22S WCI  28
HARRISON       CLEAR     31  21  66 W5        30.16R WCI  26
BENTONVILLE    CLEAR     28  21  74 CALM      30.18S
ROGERS         CLEAR     30  22  72 CALM      30.18F
SILOAM SPGS    CLEAR     30  18  59 CALM      30.20S
HIGHFILL       CLEAR     31  20  63 NW5       30.18R WCI  26
$$

ARZ004-005-016-150900-
NORTH CENTRAL ARKANSAS

CITY           SKY/WX    TMP DP  RH WIND       PRES   REMARKS
BATESVILLE     CLEAR     36  27  69 NW7       30.15R
FLIPPIN        CLEAR     34  19  55 NW5       30.17R WCI  30
MTN HOME       CLEAR     31  24  75 NW3       30.15R
$$

ARZ040-041-150900-
WEST CENTRAL ARKANSAS

CITY           SKY/WX    TMP DP  RH WIND       PRES   REMARKS
MENA           CLEAR     37  23  56 CALM      30.20R
MOUNT IDA      CLEAR     36  27  69 NW3       30.16R
$$

ARZ009-017-025-026-028-150900-
NORTHEAST ARKANSAS

CITY           SKY/WX    TMP DP  RH WIND       PRES   REMARKS
CORNING        FAIR      37  27  65 N12       30.14R
JONESBORO      CLEAR     38  26  62 N9        30.12R
NEWPORT        CLEAR     36  27  70 N16       30.15R
BLYTHEVILLE    CLOUDY    37  29  72 N24G31    30.09R
$$

ARZ022-023-033-042-044-150900-
CENTRAL ARKANSAS

CITY           SKY/WX    TMP DP  RH WIND       PRES   REMARKS
LITTLE ROCK    CLEAR     39  26  59 N10G20    30.17R
N LITTLE ROCK    N/A     37  29  71 N9G17     30.17R
JACKSONVILLE   CLEAR     38  26  62 NW6       30.17R
SEARCY         CLEAR     38  27  65 N12       30.16R
HOT SPRINGS    CLEAR     39  23  52 NW7       30.18R
RUSSELLVILLE   CLEAR     33  28  81 CALM      30.19R
CLINTON        FAIR      37  27  65 CALM      30.18S
$$

ARZ036-150900-
EAST ARKANSAS

CITY           SKY/WX    TMP DP  RH WIND       PRES   REMARKS
WEST MEMPHIS   CLOUDY    41  32  70 N15G23    30.08R
$$

ARZ050-053-066-070-073-150900-
SOUTHWEST ARKANSAS

CITY           SKY/WX    TMP DP  RH WIND       PRES   REMARKS
ARKADELPHIA    FAIR      41  30  65 NW5       30.20R
CAMDEN         CLEAR     36  32  87 MISG      30.19R
TEXARKANA      CLEAR     38  29  70 NW7       30.21R
EL DORADO      CLEAR     36  33  89 NW6       30.18R
DE QUEEN       CLEAR     33  31  92 CALM      30.21R
$$

ARZ056-057-069-150900-
SOUTHEAST ARKANSAS

CITY           SKY/WX    TMP DP  RH WIND       PRES   REMARKS
PINE BLUFF     CLEAR     40  28  62 N10G22    30.16R
MONTICELLO     MOCLDY    41  31  67 VRB3      30.13R

$$





USA.gov is the U.S. government's official web portal to all federal, state and local government web resources and services.